TimeCDT,TemperatureF,Dew PointF,Humidity,Sea Level PressureIn,VisibilityMPH,Wind Direction,Wind SpeedMPH,Gust SpeedMPH,PrecipitationIn,Events,Conditions,WindDirDegrees,DateUTC
12:15 AM,44.6,35.6,71,30.03,10.0,SSW,8.1,-,N/A,,Clear,200,2012-10-09 05:15:00
12:35 AM,44.6,35.6,71,30.03,10.0,South,8.1,-,N/A,,Clear,190,2012-10-09 05:35:00
12:55 AM,44.6,35.6,71,30.02,10.0,South,8.1,-,N/A,,Clear,190,2012-10-09 05:55:00
1:15 AM,44.6,35.6,71,30.01,10.0,South,8.1,-,N/A,,Clear,190,2012-10-09 06:15:00
1:55 AM,44.6,35.6,71,30.00,10.0,South,4.6,-,N/A,,Clear,180,2012-10-09 06:55:00
2:15 AM,44.6,35.6,71,30.00,10.0,South,5.8,-,N/A,,Clear,190,2012-10-09 07:15:00
2:55 AM,44.6,37.4,76,29.99,10.0,South,8.1,-,N/A,,Clear,190,2012-10-09 07:55:00
3:15 AM,46.4,37.4,71,29.98,10.0,South,9.2,-,N/A,,Clear,190,2012-10-09 08:15:00
3:35 AM,46.4,37.4,71,29.97,10.0,South,9.2,-,N/A,,Clear,180,2012-10-09 08:35:00
3:55 AM,46.4,37.4,71,29.96,10.0,South,10.4,-,N/A,,Clear,180,2012-10-09 08:55:00
4:15 AM,46.4,37.4,71,29.96,10.0,South,9.2,-,N/A,,Clear,190,2012-10-09 09:15:00
4:35 AM,46.4,37.4,71,29.96,10.0,South,9.2,-,N/A,,Clear,180,2012-10-09 09:35:00
4:55 AM,44.6,37.4,76,29.96,10.0,South,9.2,-,N/A,,Clear,180,2012-10-09 09:55:00
5:15 AM,44.6,37.4,76,29.96,10.0,South,9.2,-,N/A,,Clear,180,2012-10-09 10:15:00
5:35 AM,44.6,37.4,76,29.96,10.0,South,6.9,-,N/A,,Clear,180,2012-10-09 10:35:00
5:55 AM,44.6,39.2,81,29.95,10.0,South,10.4,-,N/A,,Clear,170,2012-10-09 10:55:00
6:15 AM,44.6,39.2,81,29.95,10.0,South,9.2,-,N/A,,Clear,180,2012-10-09 11:15:00
6:35 AM,44.6,39.2,81,29.95,10.0,South,9.2,-,N/A,,Clear,170,2012-10-09 11:35:00
6:55 AM,44.6,39.2,81,29.95,10.0,South,8.1,-,N/A,,Clear,180,2012-10-09 11:55:00
7:15 AM,44.6,41.0,87,29.95,10.0,South,8.1,-,N/A,,Clear,180,2012-10-09 12:15:00
7:35 AM,44.6,41.0,87,29.95,10.0,South,9.2,-,N/A,,Clear,180,2012-10-09 12:35:00
7:55 AM,44.6,41.0,87,29.95,10.0,South,8.1,-,N/A,,Clear,180,2012-10-09 12:55:00
8:15 AM,46.4,41.0,81,29.95,10.0,South,10.4,-,N/A,,Clear,170,2012-10-09 13:15:00
8:35 AM,50.0,42.8,76,29.95,10.0,South,11.5,-,N/A,,Clear,170,2012-10-09 13:35:00
8:55 AM,50.0,42.8,76,29.95,10.0,South,11.5,-,N/A,,Clear,190,2012-10-09 13:55:00
9:15 AM,51.8,42.8,71,29.95,10.0,South,17.3,-,N/A,,Clear,180,2012-10-09 14:15:00
9:35 AM,53.6,44.6,72,29.94,10.0,South,17.3,25.3,N/A,,Clear,180,2012-10-09 14:35:00
9:55 AM,53.6,44.6,72,29.93,10.0,South,18.4,26.5,N/A,,Clear,180,2012-10-09 14:55:00
10:15 AM,55.4,44.6,67,29.93,10.0,South,18.4,26.5,N/A,,Clear,180,2012-10-09 15:15:00
10:35 AM,57.2,44.6,63,29.93,10.0,South,18.4,26.5,N/A,,Clear,180,2012-10-09 15:35:00
10:55 AM,59.0,46.4,63,29.93,10.0,South,16.1,26.5,N/A,,Clear,180,2012-10-09 15:55:00
11:15 AM,60.8,46.4,59,29.92,10.0,South,19.6,25.3,N/A,,Clear,180,2012-10-09 16:15:00
11:35 AM,60.8,46.4,59,29.92,10.0,SSW,17.3,25.3,N/A,,Clear,200,2012-10-09 16:35:00
11:55 AM,62.6,46.4,55,29.91,10.0,South,18.4,26.5,N/A,,Clear,180,2012-10-09 16:55:00
12:15 PM,62.6,48.2,59,29.90,10.0,South,17.3,26.5,N/A,,Scattered Clouds,180,2012-10-09 17:15:00
12:35 PM,64.4,48.2,56,29.90,10.0,SSW,18.4,24.2,N/A,,Scattered Clouds,200,2012-10-09 17:35:00
12:55 PM,64.4,48.2,56,29.90,10.0,South,17.3,-,N/A,,Mostly Cloudy,180,2012-10-09 17:55:00
1:15 PM,64.4,50.0,59,29.90,10.0,South,17.3,21.9,N/A,,Overcast,190,2012-10-09 18:15:00
1:35 PM,62.6,50.0,63,29.90,10.0,SSW,12.7,-,N/A,,Overcast,200,2012-10-09 18:35:00
1:55 PM,62.6,50.0,63,29.90,10.0,South,12.7,-,N/A,,Overcast,190,2012-10-09 18:55:00
2:15 PM,62.6,50.0,63,29.90,10.0,South,11.5,-,N/A,,Overcast,190,2012-10-09 19:15:00
2:35 PM,62.6,50.0,63,29.90,10.0,South,12.7,-,N/A,,Overcast,170,2012-10-09 19:35:00
2:55 PM,62.6,50.0,63,29.90,10.0,South,11.5,-,N/A,,Overcast,170,2012-10-09 19:55:00
3:15 PM,62.6,50.0,63,29.90,10.0,South,10.4,-,N/A,,Overcast,170,2012-10-09 20:15:00
3:35 PM,62.6,50.0,63,29.90,10.0,South,10.4,-,N/A,,Overcast,170,2012-10-09 20:35:00
3:55 PM,62.6,51.8,68,29.90,10.0,South,10.4,-,N/A,,Overcast,170,2012-10-09 20:55:00
4:15 PM,62.6,51.8,68,29.91,10.0,South,11.5,-,N/A,,Overcast,180,2012-10-09 21:15:00
4:35 PM,62.6,51.8,68,29.91,10.0,SSE,9.2,-,N/A,,Overcast,160,2012-10-09 21:35:00
4:55 PM,62.6,51.8,68,29.92,10.0,SSE,5.8,-,N/A,,Overcast,160,2012-10-09 21:55:00
5:15 PM,62.6,51.8,68,29.92,10.0,SSE,6.9,-,N/A,,Overcast,160,2012-10-09 22:15:00
5:35 PM,62.6,51.8,68,29.93,10.0,SSE,5.8,-,N/A,,Overcast,160,2012-10-09 22:35:00
5:55 PM,60.8,51.8,72,29.94,10.0,SSE,5.8,-,N/A,,Overcast,160,2012-10-09 22:55:00
6:15 PM,60.8,51.8,72,29.95,10.0,SSE,3.5,-,N/A,,Overcast,160,2012-10-09 23:15:00
6:35 PM,60.8,51.8,72,29.95,10.0,ESE,3.5,-,N/A,,Overcast,110,2012-10-09 23:35:00
6:55 PM,60.8,51.8,72,29.96,10.0,Calm,Calm,-,N/A,,Overcast,0,2012-10-09 23:55:00
7:15 PM,60.8,51.8,72,29.97,10.0,East,3.5,-,N/A,,Overcast,100,2012-10-10 00:15:00
7:35 PM,60.8,51.8,72,29.98,10.0,Calm,Calm,-,N/A,,Overcast,0,2012-10-10 00:35:00
7:55 PM,59.0,51.8,77,29.99,10.0,East,3.5,-,N/A,,Overcast,80,2012-10-10 00:55:00
8:15 PM,59.0,51.8,77,30.00,7.0,ENE,3.5,-,N/A,,Overcast,60,2012-10-10 01:15:00
8:35 PM,59.0,51.8,77,30.01,7.0,NNW,9.2,-,N/A,,Overcast,330,2012-10-10 01:35:00
8:55 PM,59.0,51.8,77,30.03,10.0,North,11.5,-,N/A,,Overcast,360,2012-10-10 01:55:00
9:15 PM,59.0,44.6,59,30.04,10.0,North,13.8,19.6,N/A,,Overcast,10,2012-10-10 02:15:00
9:35 PM,59.0,44.6,59,30.06,10.0,North,10.4,-,N/A,,Overcast,10,2012-10-10 02:35:00
9:55 PM,57.2,42.8,59,30.08,10.0,North,12.7,-,N/A,,Scattered Clouds,360,2012-10-10 02:55:00
10:15 PM,55.4,42.8,63,30.09,10.0,North,10.4,-,N/A,,Scattered Clouds,10,2012-10-10 03:15:00
10:35 PM,57.2,42.8,59,30.10,10.0,North,11.5,-,N/A,,Mostly Cloudy,10,2012-10-10 03:35:00
10:55 PM,55.4,42.8,63,30.11,10.0,North,11.5,-,N/A,,Overcast,10,2012-10-10 03:55:00
11:15 PM,55.4,42.8,63,30.12,10.0,North,10.4,-,N/A,,Mostly Cloudy,360,2012-10-10 04:15:00
11:35 PM,55.4,42.8,63,30.12,10.0,North,11.5,20.7,N/A,,Scattered Clouds,10,2012-10-10 04:35:00
11:55 PM,53.6,42.8,67,30.13,10.0,North,11.5,-,N/A,,Scattered Clouds,10,2012-10-10 04:55:00